Weather History for PHNY - March, 2013

Change the Weather History Date:

Sunday, March 24, 2013

  Actual Average Record
Temperature  
Mean Temperature 69 °F -  
Max Temperature 73 °F 77 °F 84 °F (2015)
Min Temperature 65 °F 61 °F 55 °F (1954)
Cooling Degree Days 4    
Growing Degree Days 19 (Base 50)    
Moisture  
Dew Point 65 °F    
Average Humidity 90    
Maximum Humidity 100    
Minimum Humidity 64    
Precipitation  
Precipitation 0.03 in - - ()
Sea Level Pressure  
Sea Level Pressure 30.02 in    
Wind  
Wind Speed 9 mph (NE)    
Max Wind Speed 15 mph    
Max Gust Speed -    
Visibility 8 miles    
Events Rain    
Averages and records for this station are not official NWS values.
T = Trace of Precipitation, MM = Missing Value Source: NWS Daily Summary

Daily Weather History Graph

Daily Weather History Graph

Search for Another Location

Airport or City:

Trip Planner

Search our weather history database for the weather conditions in past years. The results will help you decide how hot, cold, wet, or windy it might be!

Date:

Astronomy

Mar. 24, 2013 Rise Set
Actual Time 6:27 AM HST 6:40 PM HST
Civil Twilight 6:05 AM HST 7:02 PM HST
Nautical Twilight 5:39 AM HST 7:28 PM HST
Astronomical Twilight 5:14 AM HST 7:54 PM HST
Moon 4:33 PM HST (3/24) 4:27 AM HST (3/24)
Length of Visible Light 12h 56m
Length of Day
12h 12m
Waxing Gibbous, 93% of the Moon is Illuminated
Mar 24
Waxing Gibbous
Mar 26
Full
Apr 2
Last Quarter
Apr 9
New
Apr 18
First Quarter

Hourly Weather History & Observations

Time (HST) Temp. Dew Point Humidity Pressure Visibility Wind Dir Wind Speed Gust Speed Precip Events Conditions
12:23 AM 66.2 °F 64.4 °F 94% 30.04 in 10.0 mi NNE 15.0 mph - N/A   Mostly Cloudy
12:56 AM 66.9 °F 64.9 °F 93% 29.99 in 10.0 mi NNE 9.2 mph - 0.00 in   Mostly Cloudy
1:24 AM 66.2 °F 64.4 °F 94% 30.03 in 10.0 mi ENE 11.5 mph - N/A   Scattered Clouds
1:56 AM 66.2 °F 64.4 °F 94% 30.02 in 10.0 mi NE 10.4 mph - N/A   Mostly Cloudy
2:34 AM 66.2 °F 64.4 °F 94% 30.01 in 10.0 mi NE 12.7 mph - N/A   Mostly Cloudy
2:56 AM 66.9 °F 64.9 °F 93% 29.95 in 10.0 mi NNE 11.5 mph - N/A   Mostly Cloudy
3:16 AM 66.2 °F 64.4 °F 94% 30.00 in 4.0 mi NNE 11.5 mph - 0.00 in Rain Light Rain
3:37 AM 66.2 °F 66.2 °F 100% 30.01 in 10.0 mi NE 8.1 mph - 0.00 in   Overcast
3:56 AM 66.9 °F 64.9 °F 93% 29.97 in 6.0 mi NNE 8.1 mph - 0.00 in Rain Light Rain
4:08 AM 66.2 °F 64.4 °F 94% 30.01 in 1.8 mi NNE 12.7 mph - 0.00 in Rain Rain
4:16 AM 66.2 °F 64.4 °F 94% 30.01 in 1.2 mi NNE 9.2 mph - 0.00 in Rain Rain
4:21 AM 66.2 °F 64.4 °F 94% 30.01 in 1.5 mi NNE 8.1 mph - 0.01 in Rain Light Rain
4:28 AM 66.2 °F 64.4 °F 94% 30.00 in 3.0 mi NNE 9.2 mph - 0.01 in Rain Light Rain
4:56 AM 66.2 °F 66.2 °F 100% 30.00 in 5.0 mi ENE 10.4 mph - N/A Rain Light Rain
5:14 AM 66.2 °F 64.4 °F 94% 30.01 in 10.0 mi ENE 8.1 mph - 0.00 in Rain Light Rain
5:56 AM 66.9 °F 65.8 °F 96% 29.97 in 4.0 mi NE 9.2 mph - 0.00 in Rain Light Rain
6:06 AM 66.2 °F 66.2 °F 100% 30.02 in 2.5 mi NE 12.7 mph - 0.00 in Rain Light Rain
6:15 AM 66.2 °F 66.2 °F 100% 30.02 in 1.5 mi ENE 6.9 mph - 0.01 in Rain Light Rain
6:20 AM 66.2 °F 66.2 °F 100% 30.02 in 3.0 mi NE 5.8 mph - 0.01 in Rain Light Rain
6:37 AM 66.2 °F 66.2 °F 100% 30.03 in 10.0 mi NE 4.6 mph - 0.01 in Rain Light Rain
6:56 AM 66.9 °F 65.8 °F 96% 29.99 in 10.0 mi NE 8.1 mph - 0.01 in   Overcast
7:26 AM 66.2 °F 66.2 °F 100% 30.05 in 10.0 mi East 4.6 mph - N/A   Overcast
7:49 AM 68.0 °F 66.2 °F 94% 30.06 in 10.0 mi East 4.6 mph - N/A   Overcast
7:56 AM 68.0 °F 64.4 °F 88% 30.06 in 10.0 mi East 4.6 mph - N/A Rain Light Rain
8:38 AM 69.8 °F 66.2 °F 88% 30.08 in 10.0 mi East 4.6 mph - 0.01 in   Mostly Cloudy
8:56 AM 70.0 °F 65.8 °F 87% 30.04 in 10.0 mi SE 4.6 mph - 0.01 in   Mostly Cloudy
9:12 AM 69.8 °F 66.2 °F 88% 30.08 in 10.0 mi SE 4.6 mph - N/A   Overcast
9:35 AM 71.6 °F 66.2 °F 83% 30.09 in 10.0 mi SSE 4.6 mph - N/A   Scattered Clouds
9:56 AM 70.9 °F 63.0 °F 76% 30.05 in 10.0 mi South 5.8 mph - N/A   Partly Cloudy
10:56 AM 72.0 °F 64.9 °F 78% 30.04 in 10.0 mi East 8.1 mph - N/A   Partly Cloudy
11:56 AM 72.9 °F 63.0 °F 71% 30.04 in 10.0 mi East 6.9 mph - N/A   Partly Cloudy
12:56 PM 73.9 °F 61.0 °F 64% 30.01 in 10.0 mi ESE 9.2 mph - N/A   Clear
1:56 PM 73.4 °F 64.4 °F 73% 30.03 in 10.0 mi WNW 4.6 mph - N/A   Overcast
2:32 PM 73.4 °F 64.4 °F 73% 30.01 in 10.0 mi Calm Calm - N/A   Mostly Cloudy
2:56 PM 72.9 °F 63.0 °F 71% 29.96 in 10.0 mi South 8.1 mph - N/A   Overcast
3:28 PM 71.6 °F 64.4 °F 78% 30.00 in 10.0 mi NNE 8.1 mph - N/A   Overcast
3:56 PM 70.9 °F 64.9 °F 81% 29.96 in 10.0 mi NE 8.1 mph - N/A   Overcast
4:56 PM 69.8 °F 66.2 °F 88% 30.01 in 1.2 mi NNE 8.1 mph - N/A Rain Heavy Rain
5:12 PM 69.8 °F 66.2 °F 88% 30.01 in 1.8 mi ENE 8.1 mph - 0.00 in Rain Light Rain
5:18 PM 69.8 °F 66.2 °F 88% 30.00 in 3.0 mi East 9.2 mph - 0.00 in Rain Light Rain
5:56 PM 68.9 °F 65.8 °F 90% 29.97 in 10.0 mi ENE 8.1 mph - 0.01 in   Overcast
6:56 PM 68.0 °F 64.9 °F 90% 29.97 in 10.0 mi ENE 8.1 mph - N/A   Clear
7:56 PM 66.9 °F 63.9 °F 90% 29.99 in 10.0 mi ESE 3.5 mph - N/A   Clear
8:56 PM 65.8 °F 64.9 °F 97% 30.01 in 10.0 mi North 5.8 mph - N/A   Partly Cloudy
9:21 PM 66.2 °F 64.4 °F 94% 30.07 in 10.0 mi North 4.6 mph - N/A   Mostly Cloudy
9:32 PM 66.2 °F 64.4 °F 94% 30.07 in 10.0 mi North 6.9 mph - N/A   Scattered Clouds
9:56 PM 66.9 °F 64.9 °F 93% 30.02 in 10.0 mi NNE 8.1 mph - N/A   Clear
10:56 PM 66.9 °F 64.9 °F 93% 30.01 in 10.0 mi North 8.1 mph - N/A   Partly Cloudy
11:10 PM 66.2 °F 66.2 °F 100% 30.07 in 10.0 mi NNE 6.9 mph - N/A   Mostly Cloudy
11:56 PM 66.9 °F 65.8 °F 96% 30.01 in 10.0 mi Variable 3.5 mph - N/A   Mostly Cloudy